This is the latest recevied weather packets stored in our database for station/object DL6JOE-10. If no packets are shown the sender has not sent any weather packets the latest 10 day(s).
| Time | Temp. | Humidity | Pressure | Rain* | Wind** | Luminosity | Snow |
|---|---|---|---|---|---|---|---|
| 1777579560 | 15° C | 25% | 971.8 hPa | - | - | - | - |
| 1777578660 | 15.56° C | 25% | 971.7 hPa | - | - | - | - |
| 1777577760 | 16.11° C | 24% | 971.4 hPa | - | - | - | - |
| 1777576860 | 16.67° C | 24% | 971.3 hPa | - | - | - | - |
| 1777575959 | 17.22° C | 23% | 971.2 hPa | - | - | - | - |
| 1777575059 | 17.22° C | 22% | 971 hPa | - | - | - | - |
| 1777574159 | 17.78° C | 22% | 970.9 hPa | - | - | - | - |
| 1777573259 | 18.33° C | 21% | 970.7 hPa | - | - | - | - |
| 1777572359 | 18.33° C | 20% | 970.6 hPa | - | - | - | - |
| 1777571459 | 18.89° C | 20% | 970.5 hPa | - | - | - | - |
| 1777570559 | 18.89° C | 19% | 970.5 hPa | - | - | - | - |
| 1777569659 | 19.44° C | 19% | 970.5 hPa | - | - | - | - |
| 1777568759 | 19.44° C | 19% | 970.4 hPa | - | - | - | - |
| 1777567859 | 19.44° C | 19% | 970.4 hPa | - | - | - | - |
| 1777566959 | 20° C | 19% | 970.4 hPa | - | - | - | - |
| 1777566058 | 20° C | 19% | 970.6 hPa | - | - | - | - |
| 1777565158 | 20° C | 18% | 970.3 hPa | - | - | - | - |
| 1777564258 | 20.56° C | 18% | 970.2 hPa | - | - | - | - |
| 1777563358 | 20.56° C | 18% | 970.3 hPa | - | - | - | - |
| 1777562458 | 21.11° C | 18% | 970.2 hPa | - | - | - | - |
| 1777561558 | 21.67° C | 19% | 970.2 hPa | - | - | - | - |
| 1777560658 | 21.67° C | 18% | 970.1 hPa | - | - | - | - |
| 1777559758 | 21.67° C | 19% | 970.2 hPa | - | - | - | - |
| 1777558858 | 21.67° C | 18% | 970.3 hPa | - | - | - | - |
| 1777557958 | 21.67° C | 18% | 970.2 hPa | - | - | - | - |
* Rain since midnight (hover to see other rain measurements)
** Current wind speed in m/s (hover to see current wind gust speed)